Location: Unspecified
(54.1780°N, 0.0000°E)
Time: 14:12:22
(UTC+00:00)

Transit 2A - Pass Details

Date: 17 June 2019
Orbit: 594 x 965 km, 66.7° (Epoch: 16 July)

Event Time Altitude Azimuth Distance (km) Brightness Sun altitude
Rises 10:14:05 0° 317° (NW) 3,525 9.1 53.3°
Reaches altitude 10° 10:16:46 10° 313° (NW) 2,531 8.4 53.6°
Maximum altitude 10:22:20 48° 241° (WSW) 1,052 7.3 54.1°
Drops below altitude 10° 10:27:22 10° 167° (SSE) 2,275 9.1 54.6°
Sets 10:29:40 0° 162° (SSE) 3,137 9.7 54.8°
